Regional Weather Roundup
Issued by NWS

Home | Current Version | Previous Version | Text Only | Print | Product List | Glossary Off
Versions: 1 2 3 4 5 6 7 8 9 10 11 12 13 14 15 16 17 18 19 20 21 22 23 24 25 26 27 28 29 30 31 32 33 34 35 36 37 38 39 40 41 42 43 44 45 46 47 48 49 50

000
ASUS45 KPSR 232310
RWRAZ

ARIZONA HOURLY REGIONAL WEATHER ROUNDUP
NATIONAL WEATHER SERVICE PHOENIX AZ
400 PM MST SAT SEP 23 2017

NOTE: FAIR INDICATES FEW OR NO CLOUDS BELOW 12,000 FEET WITH NO
SIGNIFICANT WEATHER AND/OR OBSTRUCTIONS TO VISIBILITY.

AZZ001>003-036-240000-
NORTHWEST ARIZONA

CITY           SKY/WX    TMP DP  RH WIND       PRES   REMARKS
BULLHEAD CITY  SUNNY     82  25  12 N10       29.73S
KINGMAN        CLOUDY    72  28  19 W8        29.84S
$$

AZZ004>008-015-016-018-240000-
NORTH CENTRAL ARIZONA

CITY           SKY/WX    TMP DP  RH WIND       PRES   REMARKS
GRAND CANYON   CLOUDY    55  17  22 W9        29.88S
WILLIAMS       SUNNY     59  18  20 SW13G24   29.90S
PRESCOTT       SUNNY     65  20  17 W13       29.86S
FLAGSTAFF      SUNNY     57  14  18 S25G32    29.90S
PAYSON           N/A     66  16  14 SW10G18   29.88S
PAGE           MOSUNNY   68  21  16 W13G23    29.74R
$$

AZZ009>014-017-240000-
NORTHEAST ARIZONA

CITY           SKY/WX    TMP DP  RH WIND       PRES   REMARKS
WINSLOW        SUNNY     73   9   8 SW21G31   29.80S
SAINT JOHNS    SUNNY     72  28  19 SW22G31   29.82S
WINDOW ROCK    SUNNY     66  29  24 SW18G33   29.87S
SHOW LOW       SUNNY     64  23  20 S25       29.90S
$$

AZZ540-542>544-546-548-240000-
GREATER PHOENIX AREA

CITY           SKY/WX    TMP DP  RH WIND       PRES   REMARKS
PHOENIX        MOSUNNY   84  26  12 W9        29.69F
BUCKEYE        SUNNY     82  25  12 SW12      29.71F
GLENDALE       SUNNY     84  27  12 S9G18     29.72F
LUKE AFB       SUNNY     84  28  13 SW14G21   29.69F
DEER VALLEY    SUNNY     82  23  11 SW15      29.72F
SCOTTSDALE     SUNNY     82  24  12 W14G20    29.73F
MESA-FALCON    SUNNY     82  27  13 W6        29.72F
MESA-GATEWAY   SUNNY     82  27  13 SW5       29.73S
$$

AZZ539-553-240000-
SOUTHWEST MARICOPA COUNTY AND PINAL COUNTY

CITY           SKY/WX    TMP DP  RH WIND       PRES   REMARKS
CASA GRANDE    NOT AVBL
GILA BEND      FAIR      85  30  13 W13       29.69F
$$

AZZ503-504-507>509-240000-
SOUTHEAST ARIZONA

CITY           SKY/WX    TMP DP  RH WIND       PRES   REMARKS
TUCSON         SUNNY     85  25  11 W12G25    29.76S
DAVIS-MONTHAN  SUNNY     85  27  12 NW12G23   29.74S
RYAN FIELD     SUNNY     84  32  15 MISG      29.75F
NOGALES        SUNNY     80  31  16 SW17G26   29.82F
SIERRA VISTA   SUNNY     77  33  19 S21       29.86S
DOUGLAS        PTSUNNY   83  46  27 SW17G26   29.80S
SAFFORD        MOSUNNY   87  36  16 NW13      29.70F
$$

AZZ532-240000-
SOUTHWEST ARIZONA

CITY           SKY/WX    TMP DP  RH WIND       PRES   REMARKS
YUMA           SUNNY     85  33  15 SW6       29.70F
$$

CAZ041-043-047-048-061-525>527-560>570-240000-
SOUTHERN CALIFORNIA

CITY           SKY/WX    TMP DP  RH WIND       PRES   REMARKS
DOWNTOWN L.A.  SUNNY     73  54  51 VRB3      29.82F
L.A. AIRPORT   MOSUNNY   70  59  68 W16       29.83F
SAN DIEGO      MOSUNNY   69  54  58 W9        29.86F
BURBANK        SUNNY     73  48  41 S9        29.82F
ONTARIO        MOSUNNY   76  48  37 SW10G22   29.81F
RIVERSIDE      MOSUNNY   76  50  40 W16G24    29.80F
PALM SPRINGS   SUNNY     86  31  13 VRB6      29.75F
EL CENTRO NAS  MOSUNNY   86  21   9 N12       29.72F
IMPERIAL       SUNNY     87  31  13 N9        29.70F
BLYTHE         SUNNY     84  25  11 NW5       29.71F
NEEDLES        SUNNY     85  26  11 MISG      29.73F
$$

NVZ020-UTZ003-240000-
SOUTHERN NEVADA-UTAH

CITY           SKY/WX    TMP DP  RH WIND       PRES   REMARKS
LAS VEGAS      MOSUNNY   72  26  18 NW3G16    29.81F
SALT LAKE CITY CLOUDY    54  35  48 NW12      29.92S
$$

NMZ009-TXZ055-240000-
NEW MEXICO-WEST TEXAS

CITY           SKY/WX    TMP DP  RH WIND       PRES   REMARKS
ALBUQUERQUE    PTSUNNY   73  44  35 W13G23    29.78S
EL PASO        MOSUNNY   90  53  28 S12       29.71F
$$


........................KEY........................
SKY/WX - SKY CONDITION/WEATHER
TMP    - TEMPERATURE IN FAHRENHEIT
DP     - DEW POINT IN FAHRENHEIT
RH     - RELATIVE HUMIDITY IN PERCENT
WIND   - DIRECTION AND SPEED IN MILES PER HOUR (MPH)
VRB    - VARIABLE WIND DIRECTION
PRES   - MEAN SEA LEVEL PRESSURE IN INCHES OF MERCURY
         F - FALLING PRESSURE   R - RISING PRESSURE
         S - STEADY PRESSURE
VSB    - VISIBILITY IN MILES
HX     - HEAT INDEX IN FAHRENHEIT
WCI    - WIND CHILL INDEX IN FAHRENHEIT
TC     - TEMPERATURE IN CELSIUS WHICH IS ALSO KNOWN AS
         TEMPERATURE IN CENTIGRADE
AFB    - AIR FORCE BASE
         LUKE AFB IS LUKE AIR FORCE BASE
         DAVIS-MONTHAN IS DAVIS-MONTHAN AIR FORCE BASE
NAS    - NAVAL AIR STATION
         EL CENTRO NAS IS EL CENTRO NAVAL AIR STATION
N/A    - NOT AVAILABLE




USA.gov is the U.S. government's official web portal to all federal, state and local government web resources and services.